Change the Weather History Date:

Monday, September 23, 2013

  Actual Average Record
Temperature  
Mean Temperature 58 °F 53 °F  
Max Temperature 70 °F 68 °F 93 °F (1992)
Min Temperature 45 °F 39 °F 26 °F (1985)
Degree Days  
Heating Degree Days 7 12  
Month to date heating degree days 67 178  
Since 1 July heating degree days 113 249  
Cooling Degree Days 0 0  
Month to date cooling degree days 78 24  
Year to date cooling degree days 405 453  
Growing Degree Days 10 (Base 50)    
Moisture  
Dew Point 47 °F    
Average Humidity 65    
Maximum Humidity 93    
Minimum Humidity 37    
Precipitation  
Precipitation T in 0.03 in 0.55 in (1941)
Month to date precipitation 1.62 0.81  
Year to date precipitation 17.51 11.93  
Snow  
Snow 0.00 in 0.00 in 2.60 in (1926)
Month to date snowfall 0.0 0.1  
Since 1 July snowfall 0.0 0.1  
Since 1 September snowfall 0.0 0.1  
Snow Depth 0.00 in    
Sea Level Pressure  
Sea Level Pressure 29.62 in    
Wind  
Wind Speed 7 mph (WNW)    
Max Wind Speed 17 mph    
Max Gust Speed 22 mph    
Visibility 10 miles    
Events Rain    
T = Trace of Precipitation, MM = Missing Value Source: NWS Daily Summary

Daily Weather History Graph

Daily Weather History Graph

Search for Another Location

Airport or City:

Trip Planner

Search our weather history database for the weather conditions in past years. The results will help you decide how hot, cold, wet, or windy it might be!

Date:

Astronomy

Sep. 23, 2013 Rise Set
Actual Time 7:43 AM CDT 7:49 PM CDT
Civil Twilight 7:11 AM CDT 8:20 PM CDT
Nautical Twilight 6:35 AM CDT 8:57 PM CDT
Astronomical Twilight 5:57 AM CDT 9:34 PM CDT
Moon 10:01 PM CDT (9/23) 12:26 PM CDT (9/23)
Length of Visible Light 13h 08m
Length of Day
12h 06m
Waning Gibbous, 81% of the Moon is Illuminated
Sep 23
Waning Gibbous
Sep 26
Last Quarter
Oct 4
New
Oct 11
First Quarter
Oct 18
Full

Hourly Weather History & Observations

Time (CDT) Temp. Dew Point Humidity Pressure Visibility Wind Dir Wind Speed Gust Speed Precip Events Conditions
12:52 AM 57.9 °F 53.1 °F 84% 29.47 in 10.0 mi North 5.8 mph - N/A   Clear
1:52 AM 57.0 °F 53.1 °F 87% 29.48 in 10.0 mi North 6.9 mph - N/A   Clear
2:52 AM 55.9 °F 53.1 °F 90% 29.49 in 10.0 mi NW 8.1 mph - N/A   Clear
3:52 AM 55.0 °F 52.0 °F 89% 29.48 in 10.0 mi Calm Calm - N/A   Clear
4:52 AM 55.0 °F 52.0 °F 89% 29.52 in 10.0 mi NW 9.2 mph - N/A   Clear
5:52 AM 57.9 °F 52.0 °F 81% 29.53 in 10.0 mi NNW 9.2 mph - N/A   Clear
6:52 AM 54.0 °F 51.1 °F 90% 29.55 in 10.0 mi Calm Calm - N/A   Clear
7:52 AM 53.1 °F 51.1 °F 93% 29.57 in 10.0 mi Calm Calm - N/A   Clear
8:09 AM 53.6 °F 51.8 °F 94% 29.57 in 10.0 mi Calm Calm - N/A   Partly Cloudy
8:52 AM 55.9 °F 51.1 °F 84% 29.58 in 10.0 mi ENE 3.5 mph - N/A   Mostly Cloudy
9:52 AM 55.9 °F 51.1 °F 84% 29.61 in 10.0 mi SSW 3.5 mph - N/A   Overcast
10:52 AM 59.0 °F 50.0 °F 72% 29.66 in 10.0 mi SW 4.6 mph - 0.00 in Rain Light Rain
11:52 AM 61.0 °F 48.9 °F 64% 29.67 in 10.0 mi West 4.6 mph - 0.00 in   Overcast
12:52 PM 62.1 °F 48.9 °F 62% 29.66 in 10.0 mi WNW 11.5 mph - 0.00 in   Overcast
1:52 PM 64.9 °F 46.9 °F 52% 29.66 in 10.0 mi WNW 12.7 mph - N/A   Overcast
2:52 PM 68.0 °F 45.0 °F 43% 29.65 in 10.0 mi West 15.0 mph - N/A   Overcast
3:52 PM 68.0 °F 46.0 °F 45% 29.65 in 10.0 mi West 10.4 mph - N/A   Mostly Cloudy
4:52 PM 68.0 °F 41.0 °F 37% 29.67 in 10.0 mi WNW 12.7 mph - N/A   Clear
5:52 PM 68.0 °F 41.0 °F 37% 29.69 in 10.0 mi West 9.2 mph - N/A   Mostly Cloudy
6:52 PM 68.0 °F 42.1 °F 39% 29.69 in 10.0 mi SW 8.1 mph - N/A   Clear
7:52 PM 60.1 °F 43.0 °F 53% 29.72 in 10.0 mi SSW 4.6 mph - N/A   Clear
8:52 PM 55.9 °F 42.1 °F 60% 29.74 in 10.0 mi West 5.8 mph - N/A   Scattered Clouds
9:52 PM 54.0 °F 41.0 °F 62% 29.77 in 10.0 mi West 6.9 mph - N/A   Clear
10:52 PM 51.1 °F 39.0 °F 63% 29.79 in 10.0 mi West 9.2 mph - N/A   Clear
11:52 PM 54.0 °F 36.0 °F 51% 29.80 in 10.0 mi West 9.2 mph - N/A   Clear